Location: Laura�t
(43.9341°N, 0.2497°E)
Time: 10:14:27
(UTC+00:00)

Cosmos 2219 Rocket - Pass Details

Date: 03 March 2021
Orbit: 826 x 848 km, 71.0° (Epoch: 18 April)

Event Time Altitude Azimuth Distance (km) Brightness Sun altitude
Rises 21:06:10 0° 234° (SW) 3,357 5.6 -35.0°
Reaches altitude 10° 21:08:51 10° 244° (WSW) 2,429 4.9 -35.4°
Maximum altitude 21:13:46 31° 306° (NW) 1,416 3.8 -36.2°
Drops below altitude 10° 21:18:44 10° 8° (N) 2,452 4.8 -37.0°
Sets 21:21:29 0° 19° (NNE) 3,393 5.5 -37.4°
